TimePDT,TemperatureF,Dew PointF,Humidity,Sea Level PressureIn,VisibilityMPH,Wind Direction,Wind SpeedMPH,Gust SpeedMPH,PrecipitationIn,Events,Conditions,WindDirDegrees,DateUTC
12:35 AM,51.8,28.4,41,30.04,10.0,Calm,Calm,-,N/A,,Clear,0,2012-10-25 07:35:00
12:55 AM,51.8,28.4,41,30.05,10.0,Calm,Calm,-,N/A,,Clear,0,2012-10-25 07:55:00
1:15 AM,53.6,28.4,38,30.06,10.0,Calm,Calm,-,N/A,,Clear,0,2012-10-25 08:15:00
1:35 AM,51.8,30.2,44,30.06,10.0,Calm,Calm,-,N/A,,Clear,0,2012-10-25 08:35:00
1:55 AM,53.6,28.4,38,30.06,10.0,Calm,Calm,-,N/A,,Clear,0,2012-10-25 08:55:00
2:15 AM,50.0,32.0,50,30.07,10.0,Calm,Calm,-,N/A,,Clear,0,2012-10-25 09:15:00
2:35 AM,50.0,28.4,43,30.07,10.0,Calm,Calm,-,N/A,,Clear,0,2012-10-25 09:35:00
2:55 AM,48.2,33.8,58,30.07,10.0,Calm,Calm,-,N/A,,Clear,0,2012-10-25 09:55:00
3:15 AM,48.2,30.2,50,30.07,10.0,Calm,Calm,-,N/A,,Clear,0,2012-10-25 10:15:00
3:35 AM,50.0,26.6,40,30.08,10.0,Calm,Calm,-,N/A,,Clear,0,2012-10-25 10:35:00
3:55 AM,50.0,28.4,43,30.08,10.0,North,3.5,-,N/A,,Clear,360,2012-10-25 10:55:00
4:15 AM,53.6,24.8,33,30.08,10.0,Calm,Calm,-,N/A,,Clear,0,2012-10-25 11:15:00
4:55 AM,59.0,21.2,23,30.09,10.0,NNW,6.9,-,N/A,,Clear,330,2012-10-25 11:55:00
5:15 AM,53.6,23.0,30,30.09,10.0,NW,6.9,-,N/A,,Clear,310,2012-10-25 12:15:00
5:35 AM,51.8,24.8,35,30.10,10.0,Calm,Calm,-,N/A,,Clear,0,2012-10-25 12:35:00
5:55 AM,51.8,23.0,33,30.11,10.0,Calm,Calm,-,N/A,,Clear,0,2012-10-25 12:55:00
6:35 AM,50.0,23.0,35,30.11,10.0,NNW,4.6,-,N/A,,Clear,330,2012-10-25 13:35:00
6:55 AM,50.0,23.0,35,30.11,10.0,North,5.8,-,N/A,,Clear,360,2012-10-25 13:55:00
7:15 AM,53.6,23.0,30,30.12,10.0,NNE,6.9,-,N/A,,Clear,20,2012-10-25 14:15:00
7:35 AM,51.8,26.6,38,30.12,10.0,South,5.8,-,N/A,,Clear,170,2012-10-25 14:35:00
7:55 AM,51.8,26.6,38,30.13,10.0,SE,3.5,-,N/A,,Clear,130,2012-10-25 14:55:00
8:15 AM,53.6,24.8,33,30.14,10.0,Calm,Calm,-,N/A,,Clear,0,2012-10-25 15:15:00
8:55 AM,55.4,23.0,29,30.15,10.0,Calm,Calm,-,N/A,,Clear,0,2012-10-25 15:55:00
9:15 AM,57.2,24.8,29,30.15,10.0,Calm,Calm,-,N/A,,Clear,0,2012-10-25 16:15:00
9:35 AM,59.0,24.8,27,30.15,10.0,SW,6.9,-,N/A,,Clear,230,2012-10-25 16:35:00
10:15 AM,62.6,17.6,18,30.15,10.0,NE,6.9,-,N/A,,Clear,40,2012-10-25 17:15:00
10:35 AM,64.4,19.4,18,30.15,10.0,NE,6.9,-,N/A,,Clear,40,2012-10-25 17:35:00
10:55 AM,64.4,17.6,16,30.15,10.0,NNE,9.2,-,N/A,,Clear,30,2012-10-25 17:55:00
11:15 AM,64.4,17.6,16,30.15,10.0,NNE,12.7,-,N/A,,Clear,30,2012-10-25 18:15:00
11:35 AM,64.4,19.4,18,30.15,10.0,NE,10.4,-,N/A,,Clear,40,2012-10-25 18:35:00
11:55 AM,64.4,19.4,18,30.15,10.0,NE,9.2,-,N/A,,Clear,40,2012-10-25 18:55:00
12:15 PM,66.2,21.2,18,30.14,10.0,NE,9.2,-,N/A,,Clear,40,2012-10-25 19:15:00
12:35 PM,66.2,19.4,17,30.13,10.0,NNE,8.1,-,N/A,,Clear,30,2012-10-25 19:35:00
1:15 PM,68.0,17.6,15,30.11,10.0,NE,9.2,-,N/A,,Clear,40,2012-10-25 20:15:00
1:35 PM,68.0,15.8,13,30.11,10.0,NE,8.1,-,N/A,,Clear,50,2012-10-25 20:35:00
1:55 PM,68.0,15.8,13,30.10,10.0,ENE,10.4,-,N/A,,Clear,60,2012-10-25 20:55:00
2:15 PM,68.0,15.8,13,30.10,10.0,NNE,11.5,-,N/A,,Clear,30,2012-10-25 21:15:00
2:35 PM,68.0,15.8,13,30.10,10.0,NE,11.5,-,N/A,,Clear,40,2012-10-25 21:35:00
2:55 PM,68.0,15.8,13,30.09,10.0,ENE,8.1,-,N/A,,Clear,60,2012-10-25 21:55:00
3:15 PM,68.0,15.8,13,30.09,10.0,NE,8.1,-,N/A,,Clear,50,2012-10-25 22:15:00
3:35 PM,68.0,15.8,13,30.09,10.0,NE,9.2,-,N/A,,Clear,50,2012-10-25 22:35:00
3:55 PM,68.0,17.6,15,30.09,10.0,ENE,9.2,-,N/A,,Clear,60,2012-10-25 22:55:00
4:15 PM,68.0,17.6,15,30.09,10.0,NE,8.1,-,N/A,,Clear,50,2012-10-25 23:15:00
4:35 PM,68.0,17.6,15,30.08,10.0,NE,9.2,-,N/A,,Clear,50,2012-10-25 23:35:00
4:55 PM,68.0,17.6,15,30.09,10.0,ENE,9.2,-,N/A,,Clear,60,2012-10-25 23:55:00
5:15 PM,68.0,17.6,15,30.09,10.0,NNE,5.8,-,N/A,,Clear,30,2012-10-26 00:15:00
5:35 PM,66.2,17.6,15,30.09,10.0,NNE,4.6,-,N/A,,Clear,30,2012-10-26 00:35:00
5:55 PM,64.4,19.4,18,30.09,10.0,NNE,3.5,-,N/A,,Clear,20,2012-10-26 00:55:00
6:15 PM,62.6,21.2,20,30.10,10.0,NE,6.9,-,N/A,,Clear,50,2012-10-26 01:15:00
6:35 PM,60.8,24.8,25,30.11,10.0,NNE,4.6,-,N/A,,Clear,20,2012-10-26 01:35:00
6:55 PM,60.8,23.0,23,30.12,10.0,NNE,5.8,-,N/A,,Clear,30,2012-10-26 01:55:00
7:15 PM,59.0,23.0,25,30.12,10.0,North,5.8,-,N/A,,Clear,10,2012-10-26 02:15:00
7:35 PM,59.0,24.8,27,30.13,10.0,NNE,6.9,-,N/A,,Clear,20,2012-10-26 02:35:00
7:55 PM,57.2,30.2,36,30.13,10.0,NNE,6.9,-,N/A,,Clear,20,2012-10-26 02:55:00
8:35 PM,57.2,28.4,33,30.14,10.0,NNE,6.9,-,N/A,,Clear,20,2012-10-26 03:35:00
8:55 PM,59.0,26.6,29,30.14,10.0,NE,8.1,-,N/A,,Clear,40,2012-10-26 03:55:00
9:15 PM,59.0,23.0,25,30.15,10.0,NNE,11.5,-,N/A,,Clear,20,2012-10-26 04:15:00
9:35 PM,62.6,19.4,19,30.16,10.0,NNE,11.5,-,N/A,,Clear,30,2012-10-26 04:35:00
9:55 PM,62.6,17.6,18,30.17,10.0,NNE,15.0,-,N/A,,Clear,20,2012-10-26 04:55:00
10:15 PM,62.6,19.4,19,30.18,10.0,NNE,17.3,-,N/A,,Clear,30,2012-10-26 05:15:00
10:35 PM,60.8,23.0,23,30.18,10.0,NNE,18.4,24.2,N/A,,Clear,30,2012-10-26 05:35:00
11:15 PM,59.0,23.0,25,30.20,10.0,NE,25.3,33.4,N/A,,Clear,40,2012-10-26 06:15:00
11:35 PM,59.0,19.4,22,30.22,10.0,NE,24.2,33.4,N/A,,Clear,40,2012-10-26 06:35:00
11:55 PM,59.0,21.2,23,30.22,10.0,NE,21.9,29.9,N/A,,Clear,40,2012-10-26 06:55:00